030924 608  0.3-  0.4-    031015 H41  0.2-  0.9+    031114 213  0.9+  0.1+  

030924 608  0.1-  0.5-    031015 699  1.1-  0.2-    031116 703  0.0   0.4+  

030924 608  0.2-  0.1-    031015 699  0.6-  0.6-    031116 703  0.2-  0.9+  

030924 198  0.1+  0.7-    031015 699 (2.0-  0.1+)   031116 703  0.8-  0.5+  

030924 198  0.2+  0.3-    031015 699 (3.7-  0.9-)   031116 703  0.1-  0.5+  

030924 J95  0.9+  0.3-    031015 A32  0.2+  0.3-    031116 360  0.1+  0.2-  

030924 198  0.3+  0.1-    031015 A32  0.1+  0.2-    031116 360  0.2-  0.2-  

030924 611  0.2-  0.0     031015 A32  0.2+  0.5-    031123 H72  1.0+  0.8+  

030924 J95  0.5+  0.3-    031016 349  0.8+  0.9-    031123 H72  0.2+  0.5-  

030924 611  0.1+  0.0     031016 349  0.3-  0.1-    031123 H72  0.3-  0.6+  

030924 J95  0.5+  0.1-    031016 349  0.0   0.4-    031123 H72  0.4+  0.4-  

030924 166  0.0   0.5+    031016 349  0.4+  0.9-    031125 213  0.3+  1.3-  

030924 118  0.1-  0.2+    031016 349  0.2-  0.1-    031125 213  1.7+  1.4-  

030924 118  0.2+  0.3+    031017 360  0.7+  0.3-    031127 H72  1.0-  0.2+  

030924 166  0.1+  0.4-    031017 360  0.8+  0.3-    031127 H72  0.6+  0.2+  

030924 196  0.2+  0.7-    031018 H41  0.1+  1.2+    031127 H72  0.2+  0.0   

030925 166  0.9-  0.4-    031018 H41  0.1+  0.2+    031127 H72  0.2+  0.4-  

030925 196  0.3-  0.7-    031018 H41  0.5+  0.9+    031128 699  0.4+  0.7+  

030925 J95  0.2+  0.2-    031018 246  0.3-  0.0     031128 699  0.8+  1.2+  

030925 J95  0.5+  0.1-    031018 246  0.2-  0.1-    031128 699  1.1+  0.2+  

030925 J95  0.5+  0.1-    031018 246  0.2-  0.2-    031128 699  0.6+  0.1-  

030925 H36  0.2+  0.1-    031018 246  0.2-  0.1-    031210 699  0.8+  0.6+  

030925 H36  0.3+  0.0     031018 246  0.2-  0.3-    031210 699  1.5+  0.2-  

030925 H59  1.3-  0.4+    031018 246  0.3-  0.1-    031210 699  0.9+  0.3+  

030925 H59  0.9-  0.3-    031019 H41  0.1+  0.6+    031210 699  1.0+  1.5-  

030925 H59  1.8-  0.0     031019 H41  0.6-  1.1+    031210 900  1.4-  1.2+  

030925 H59  0.2+  0.9+    031019 704  0.0   0.1-    031210 900  1.6-  0.8-  

030925 608  0.6+  0.3-    031019 704  0.1-  0.7+    031211 170  0.0   0.7-  

030925 608  0.0   0.8-    031019 704  0.3-  0.4-    031211 170  0.2+  0.9-  

030925 608  0.3+  0.7-    031019 704  0.8-  0.5+    031211 213  0.6-  0.6+  

030925 215  0.5+  0.4-    031019 704 (1.1-  2.5+)   031211 213 (2.5-  0.8+) 

030925 215  0.3+  0.0     031019 704  1.0-  1.5+    031213 104  0.1-  0.3-  

030925 215  0.2-  0.6+    031019 704  1.6-  1.3+    031213 104  0.5-  0.2-  

030925 240  0.3+  0.1-    031019 704  0.7-  0.2+    031213 104  0.5-  0.2-  

030925 240  0.1+  0.1-    031019 704 (2.7-  3.0+)   031214 704  0.3-  0.7-  

030925 240  0.1-  0.2-    031019 704  0.7-  0.3+    031214 704  0.2+  0.1+  

030925 240  0.2+  0.3-    031020 H41  0.9-  0.4+    031214 704  0.4+  0.5-  

030925 240  0.0   0.2-    031020 H41  0.8-  0.7+    031214 704  0.8-  1.0+  

030926 118  0.9+  0.1+    031020 785  0.3+  0.1+    031214 704  0.4+  0.5+  

030926 118  0.0   0.6+    031020 785  0.9-  0.9-    031214 J97 (0.5-  3.5-) 

030926 118  0.1-  0.2+    031020 691  0.8-  0.4-    031214 J97  0.8+  0.4-  

030926 H41  1.5-  1.0+    031020 691  1.1-  0.4-    031214 J97 (0.2+  2.7-) 

030926 H41  1.0-  0.9+    031020 691  1.0-  0.3-    031219 644  0.5-  1.1+  

030926 H41  1.2-  1.3+    031020 213  0.1+  0.5-    031219 644  0.4-  0.5-  

030926 342  0.2+  0.8-    031020 213  0.2-  0.6-    031219 644  0.1-  0.5-  

030926 342  0.4-  0.5+    031020 213  0.6+  0.5-    031221 683  0.6+  0.6+  

030926 372  0.8-  0.9-    031021 H41  0.7+  0.6-    031221 683  1.2+  1.2+  

030926 360  0.1+  0.5-    031021 H41  0.2-  0.8+    031221 683 (2.3+  0.5+) 

030926 360  0.3+  0.3-    031023 H41  0.5-  0.2+    031221 349  1.6+  0.9+  

030926 372  0.1-  0.7-    031023 H41  0.5+  0.5+    031221 349  0.1-  1.2+  

030926 130  0.2+  0.5-    031023 608  1.6-  1.4+    031222 683  0.7+  0.1+  

030926 130  0.5+  0.9-    031023 608  0.5-  0.3+    031222 683  0.5+  0.4+  

030927 166  0.3-  0.2-    031023 608  0.0   0.4-    031222 683  1.6+  1.1+  

030927 166  1.0-  0.5-    031024 360  0.2+  0.2-    031222 704  1.2-  0.4-  

030927 166  1.3-  0.4-    031024 360  0.3+  0.2-    031222 704  0.5-  0.0   

030927 108  0.4-  0.2+    031027 699 (2.2-  0.4-)   031222 704  0.1+  0.0   

030927 166  0.1+  0.1-    031027 699  1.4-  0.3-    031222 704  0.7-  0.2+  

030927 108  0.2+  0.4-    031027 699  0.8-  0.5-    031222 704  0.4-  0.5+  

030927 166  0.1+  1.0-    031027 699  1.0-  0.4-    031223 215  1.1+  0.6-  

030927 108  0.5+  1.4+    031027 H41  0.6+  0.2-    031224 246  0.1+  0.2-  

030927 108  1.0+  0.9+    031027 H41  0.5+  0.1+    031224 246  0.3-  0.2-  

030927 642  0.5+  0.3-    031027 H41  1.3+  0.5+    031224 246  0.1-  0.6-  

030927 642  0.3-  0.2+    031027 A41  0.3+  0.6-    031224 246  0.3-  0.3-  

030927 642 (1.6-  2.4-)   031027 A41  0.3+  0.2-    031224 246  0.3-  0.3-  

030927 372  0.4-  0.2+    031027 A41  0.5-  1.3-    031224 246  0.1-  0.2-  

030928 642 (0.3+  3.3+)   031028 246  0.0   0.1-    031228 360  0.7-  0.4-  

030928 642  1.5+  1.4-    031028 246  0.2+  0.3+    031228 360  0.2-  0.1-  

030928 900  0.2-  0.1+    031028 246  0.0   0.3+    2004/                   

030928 900  0.6-  0.1+    031028 246  0.1+  0.3+    040103 213  0.4+  0.6-  

030929 H41  0.6+  0.5+    031028 246  0.2+  0.4+    040105 170  0.5+  0.7-  

030929 H41  1.0+  0.2+    031028 561  0.2-  0.1+    040105 170  0.1-  0.7-  

030930 372  0.1+  0.8+    031028 561  0.2-  0.1-    040105 170  0.3-  0.4-  

030930 360  0.8+  0.0     031028 561  0.1-  0.1-    040109 608  1.0-  0.2-  

030930 360  0.6+  0.3-    031029 360  0.2+  0.5-    040109 608  0.8-  0.0   

031001 673  0.9+  0.3+    031029 360  0.2+  0.5-    040109 608  0.9-  0.4+  

031001 673  0.5+  0.3+    031029 342  0.4+  0.7-    040121 704  0.7+  0.7+  

031001 673  0.8+  0.5+    031029 342  0.8+  1.1-    040121 704  0.2+  0.4+  

031002 H41  0.2-  0.7-    031101 213  0.5-  0.6-    040121 704  0.9-  0.2+  

031002 H41  0.2-  0.3-    031101 213  0.3+  0.1-    040210 360  0.8-  0.6+  

031002 372  0.8-  0.0     031101 232  0.4-  0.2-    040210 360  0.6-  0.8+  

031002 A33  0.7+  0.1+    031102 232  0.4-  0.5-    040210 360  0.4-  0.4+  

031003 A33  0.6+  0.0     031102 232  1.1+  0.0     040217 704  0.3+  1.7-  

031003 785  0.4+  0.2-    031102 H41  0.1+  0.6-    040217 704  0.5-  0.3-  

031003 785  0.6+  0.8+    031102 H41  0.2-  0.3-    040217 704  0.4+  0.5+  

031003 785  0.8+  1.0-    031102 H41  0.2-  0.0     040217 704  0.0   0.7+  

031005 213  0.1-  1.3-    031102 H41  0.4+  0.1+    040218 360  1.1+  0.5+  

031005 213 (2.9-  1.9-)   031103 H41  0.4+  0.3+    040218 360  0.2-  0.5+  

031005 608  0.9-  0.8-    031103 H41  0.2+  0.3+    040218 360  0.8+  0.3+  

031005 608  0.1-  1.1-    031103 H41  0.1+  0.4+                            

031005 608  0.5-  0.5-    031103 H41  0.5+  0.8+                            



NAKANO

         **** Don't distribute anyone except personal use only ****

                (C) Copyright 2004 OAA/ComputingSection

write mail from CFAD0::NAKANO on 2004-02-22 01:35:38(JST).

 

    P/2003 S2 (NEAT)                                                      

Epoch 2003 Aug. 29.0 TT = JDT 2452880.5  

T 2003 Sept 7.28875 TT                                  Nakano

q   2.4575381            (2000.0)            P               Q

n   0.13132701     Peri.  284.21942     +0.96957235     -0.20565205

a   3.8332460      Node    87.77576     +0.24223220     +0.88438555

e   0.3588885      Incl.    7.63740     -0.03539800     +0.41901006

P   7.50 (+/- 0.01 day)

From 268 observations 2003 Aug. 1-2004 Jan. 9, mean residual 0".61.



NAKANO

         **** Don't distribute anyone except personal use only ****

                (C) Copyright 2004 OAA/ComputingSection

write mail from CFAD0::NAKANO on 2004-01-21 21:27:50(JST).

 



    P/2003 S2 (NEAT)                                                      

Epoch 2003 Aug. 29.0 TT = JDT 2452880.5  

T 2003 Sept. 7.24091 TT                                 Nakano

q   2.4575235            (2000.0)            P               Q

n   0.13132217     Peri.  284.20284     +0.96962376     -0.20541062

a   3.8333401      Node    87.77805     +0.24201107     +0.88444827

e   0.3589080      Incl.    7.63729     -0.03550215     +0.41899610

P   7.51 (+/- 0.02 day)

From 219 observations 2003 Aug. 1-Nov. 28, mean residual 0".59.



NAKANO

         **** Don't distribute anyone except personal use only ****

                (C) Copyright 2003 OAA/ComputingSection

write mail from CFAD0::NAKANO on 2003-12-14 18:52:00(JST).

 

   P/2003 S2 (NEAT)                                                      

Epoch 2003 Aug. 29.0 TT = JDT 2452880.5  

T 2003 Sept 7.24751 TT                                  Nakano

q   2.4575323            (2000.0)            P               Q

n   0.13132272     Peri.  284.20497     +0.96961646     -0.20544490

a   3.8333293      Node    87.77795     +0.24204247     +0.88443958

e   0.3589039      Incl.    7.63730     -0.03548752     +0.41899764

P   7.51 (+/- 0.02 day)

From 205 observations 2003 Aug. 1-Nov. 16, mean residual 0".58.





NAKANO

         **** Don't distribute anyone except personal use only ****

                (C) Copyright 2003 OAA/ComputingSection

write mail from CFAD0::NAKANO on 2003-11-20 02:00:59(JST).

 

    P/2003 S2 (NEAT)                                                      

T 2003 Sept. 6.69722 TT                                 Nakano

q   2.4558879            (2000.0)            P               Q

n   0.13131558     Peri.  283.99585     +0.97025222     -0.20247316

a   3.8334683      Node    87.81107     +0.23929532     +0.88521788

e   0.3593561      Incl.    7.63254     -0.03672024     +0.41880059

P   7.51 (+/- 0.47 day)

From 101 observations 2003 Sept. 19-Oct. 18.



NAKANO

